This is the latest recevied weather packets stored in our database for station/object IK2ILW-4. If no packets are shown the sender has not sent any weather packets the latest 10 day(s).
| Time | Temp. | Humidity | Pressure | Rain* | Wind** | Luminosity | Snow |
|---|---|---|---|---|---|---|---|
| 1777790853 | 12.22° C | 53% | 1020.9 hPa | 0 mm | - | 452 W/m² | - |
| 1777790559 | 12.22° C | 55% | 1020.8 hPa | 0 mm | - | 411 W/m² | - |
| 1777790256 | 12.22° C | 58% | 1020.8 hPa | 0 mm | - | 445 W/m² | - |
| 1777789952 | 12.22° C | 58% | 1020.8 hPa | 0 mm | - | 429 W/m² | - |
| 1777789653 | 12.22° C | 58% | 1020.9 hPa | 0 mm | - | 403 W/m² | - |
| 1777789354 | 12.22° C | 60% | 1020.9 hPa | 0 mm | - | 369 W/m² | - |
| 1777789053 | 11.67° C | 63% | 1020.9 hPa | 0 mm | - | 357 W/m² | - |
| 1777788769 | 11.67° C | 64% | 1021.8 hPa | 0 mm | - | 355 W/m² | - |
| 1777788466 | 11.11° C | 62% | 1021.8 hPa | 0 mm | - | 341 W/m² | - |
| 1777788162 | 11.11° C | 63% | 1021.8 hPa | 0 mm | - | 311 W/m² | - |
| 1777787863 | 11.11° C | 63% | 1020.8 hPa | 0 mm | - | 295 W/m² | - |
| 1777787562 | 11.11° C | 66% | 1020.8 hPa | 0 mm | - | 283 W/m² | - |
| 1777787258 | 10.56° C | 66% | 1020.8 hPa | 0 mm | - | 236 W/m² | - |
| 1777786955 | 10° C | 65% | 1020.8 hPa | 0 mm | - | 186 W/m² | - |
| 1777786671 | 10° C | 64% | 1020.8 hPa | 0 mm | - | 42 W/m² | - |
| 1777786351 | 10° C | 65% | 1020.8 hPa | 0 mm | - | 42 W/m² | - |
| 1777786070 | 10° C | 64% | 1020.7 hPa | 0 mm | - | 44 W/m² | - |
| 1777785767 | 10° C | 64% | 1020.7 hPa | 0 mm | - | 47 W/m² | - |
| 1777785467 | 10° C | 63% | 1020.7 hPa | 0 mm | - | 47 W/m² | - |
| 1777785168 | 10° C | 64% | 1021.6 hPa | 0 mm | - | 47 W/m² | - |
| 1777784869 | 10° C | 64% | 1021.6 hPa | 0 mm | - | 46 W/m² | - |
| 1777784550 | 10° C | 64% | 1021.6 hPa | 0 mm | - | 44 W/m² | - |
| 1777784251 | 9.44° C | 64% | 1021.5 hPa | 0 mm | - | 40 W/m² | - |
| 1777783952 | 9.44° C | 64% | 1021.5 hPa | 0 mm | - | 35 W/m² | - |
| 1777783653 | 10° C | 64% | 1021.5 hPa | 0 mm | - | 30 W/m² | - |
* Rain since midnight (hover to see other rain measurements)
** Current wind speed in m/s (hover to see current wind gust speed)